Weather History for Bolton Field, OH

Change the Weather History Date:

Sunday, September 23, 2012

  Actual Average Record
Temperature  
Mean Temperature 48 °F -  
Max Temperature 62 °F 72 °F 91 °F (2010)
Min Temperature 34 °F 51 °F 33 °F (2000)
Degree Days  
Heating Degree Days 17    
Moisture  
Dew Point 37 °F    
Average Humidity 76    
Maximum Humidity 100    
Minimum Humidity 36    
Precipitation  
Precipitation 0.00 in - - ()
Sea Level Pressure  
Sea Level Pressure 30.18 in    
Wind  
Wind Speed 5 mph (West)    
Max Wind Speed 14 mph    
Max Gust Speed 17 mph    
Visibility 9 miles    
Events      
Averages and records for this station are not official NWS values.
T = Trace of Precipitation, MM = Missing Value Source: NWS Daily Summary

Daily Weather History Graph

Daily Weather History Graph

Search for Another Location

Airport:

Trip Planner

Search our weather history database for the weather conditions in past years. The results will help you decide how hot, cold, wet, or windy it might be!

Date:

Astronomy

Sep. 23, 2012 Rise Set
Actual Time 7:21 AM EDT 7:27 PM EDT
Civil Twilight 6:54 AM EDT 7:54 PM EDT
Nautical Twilight 6:23 AM EDT 8:25 PM EDT
Astronomical Twilight 5:50 AM EDT 8:57 PM EDT
Moon 3:27 PM EDT (9/23) 12:32 AM EDT (9/23)
Length of Visible Light 12h 59m
Length of Day
12h 05m
First Quarter, 60% of the Moon is Illuminated
Sep 23
First Quarter
Sep 29
Full
Oct 8
Last Quarter
Oct 15
New
Oct 21
First Quarter

Hourly Weather History & Observations

Time (EDT) Temp. Windchill Dew Point Humidity Pressure Visibility Wind Dir Wind Speed Gust Speed Precip Events Conditions
12:15 AM 44.1 °F 40.8 °F 38.5 °F 81% 30.14 in 10.0 mi West 5.8 mph - N/A   Clear
12:35 AM 44.1 °F 40.8 °F 38.7 °F 81% 30.14 in 10.0 mi West 5.8 mph - N/A   Clear
12:55 AM 43.3 °F 39.9 °F 38.7 °F 84% 30.14 in 10.0 mi West 5.8 mph - N/A   Clear
1:15 AM 43.3 °F 40.7 °F 38.8 °F 84% 30.14 in 10.0 mi West 4.6 mph - N/A   Clear
1:35 AM 42.8 °F 40.1 °F 38.8 °F 86% 30.14 in 10.0 mi West 4.6 mph - N/A   Clear
1:55 AM 42.8 °F 39.3 °F 38.8 °F 86% 30.14 in 10.0 mi West 5.8 mph - N/A   Clear
2:15 AM 43.0 °F 39.5 °F 39.2 °F 86% 30.14 in 10.0 mi West 5.8 mph - N/A   Clear
2:35 AM 43.0 °F 38.8 °F 39.2 °F 86% 30.14 in 10.0 mi WNW 6.9 mph - N/A   Clear
2:55 AM 43.3 °F 39.2 °F 39.4 °F 86% 30.14 in 10.0 mi West 6.9 mph - N/A   Clear
3:15 AM 42.4 °F 39.6 °F 38.8 °F 87% 30.14 in 10.0 mi West 4.6 mph - N/A   Clear
3:35 AM 41.9 °F 39.0 °F 39.2 °F 90% 30.14 in 10.0 mi West 4.6 mph - N/A   Clear
3:55 AM 41.5 °F 39.6 °F 39.2 °F 91% 30.14 in 10.0 mi West 3.5 mph - N/A   Clear
4:15 AM 41.5 °F 39.6 °F 39.2 °F 91% 30.15 in 10.0 mi West 3.5 mph - N/A   Clear
4:35 AM 40.1 °F 38.0 °F 38.3 °F 93% 30.16 in 10.0 mi WSW 3.5 mph - N/A   Clear
4:55 AM 38.3 °F 35.9 °F 37.2 °F 96% 30.16 in 10.0 mi WSW 3.5 mph - N/A   Clear
5:15 AM 36.9 °F - 36.1 °F 97% 30.16 in 10.0 mi Calm Calm - N/A   Clear
5:35 AM 36.1 °F - 36.0 °F 99% 30.17 in 10.0 mi Calm Calm - N/A   Clear
5:55 AM 36.0 °F - 35.6 °F 99% 30.17 in 10.0 mi North - - N/A   Clear
6:15 AM 35.2 °F - 35.1 °F 99% 30.18 in 10.0 mi North - - N/A   Clear
6:35 AM 34.3 °F - 34.3 °F 100% 30.19 in 10.0 mi North - - N/A   Clear
6:55 AM 34.0 °F - 34.0 °F 100% 30.19 in 4.0 mi North - - N/A   Clear
7:11 AM 35.6 °F - 35.6 °F 100% 30.19 in 5.0 mi Calm Calm - N/A   Clear
7:15 AM 34.9 °F - 34.9 °F 100% 30.19 in 5.0 mi North - - N/A   Clear
7:35 AM 35.4 °F - 35.4 °F 100% 30.19 in 5.0 mi North - - N/A   Clear
7:55 AM 35.1 °F - 35.1 °F 100% 30.20 in 4.0 mi North - - N/A   Clear
8:15 AM 37.8 °F - 37.8 °F 100% 30.20 in 7.0 mi North - - N/A   Clear
9:50 AM 51.8 °F - 42.8 °F 71% 30.22 in 10.0 mi Calm Calm - N/A   Clear
10:50 AM 57.2 °F - 42.8 °F 59% 30.21 in 10.0 mi West 4.6 mph - N/A   Scattered Clouds
11:50 AM 59.0 °F - 37.4 °F 45% 30.21 in 10.0 mi West 11.5 mph - N/A   Scattered Clouds
12:50 PM 60.8 °F - 35.6 °F 39% 30.20 in 10.0 mi West 11.5 mph 17.3 mph N/A   Mostly Cloudy
1:47 PM 62.6 °F - 37.4 °F 39% 30.19 in 10.0 mi WSW 10.4 mph - N/A   Overcast
2:47 PM 60.8 °F - 37.4 °F 42% 30.18 in 10.0 mi West 9.2 mph - N/A   Scattered Clouds
3:50 PM 62.6 °F - 35.6 °F 37% 30.18 in 10.0 mi WSW 11.5 mph - N/A   Mostly Cloudy
4:50 PM 60.8 °F - 33.8 °F 36% 30.17 in 10.0 mi WSW 13.8 mph - N/A   Mostly Cloudy
5:50 PM 60.8 °F - 35.6 °F 39% 30.17 in 10.0 mi West 6.9 mph - N/A   Mostly Cloudy
6:50 PM 59.0 °F - 35.6 °F 42% 30.18 in 10.0 mi West 5.8 mph - N/A   Mostly Cloudy
9:15 PM 50.9 °F - 35.8 °F 56% 30.21 in 10.0 mi WNW 4.6 mph - N/A   Mostly Cloudy
9:35 PM 49.6 °F - 35.6 °F 59% 30.21 in 10.0 mi WNW 4.6 mph - N/A   Scattered Clouds
9:55 PM 49.1 °F - 35.6 °F 60% 30.22 in 10.0 mi WNW 4.6 mph - N/A   Clear
10:15 PM 49.1 °F - 35.1 °F 58% 30.22 in 10.0 mi West 3.5 mph - N/A   Clear
10:35 PM 48.4 °F - 35.1 °F 60% 30.23 in 10.0 mi WNW 4.6 mph - N/A   Clear
10:55 PM 47.1 °F - 35.6 °F 64% 30.23 in 10.0 mi WNW 4.6 mph - N/A   Clear
11:15 PM 45.9 °F 42.9 °F 35.8 °F 68% 30.24 in 10.0 mi NW 5.8 mph - N/A   Scattered Clouds
11:35 PM 44.4 °F 41.2 °F 36.5 °F 74% 30.24 in 10.0 mi NW 5.8 mph - N/A   Clear
11:55 PM 45.5 °F 44.2 °F 36.0 °F 69% 30.24 in 10.0 mi NW 3.5 mph - N/A   Clear